Location: Chervonnoye
(48.6000°N, 34.4000°E)
Time: 00:59:13
(UTC+00:00)

KAITUO 1B - Pass Details

Date: 01 December 2021
Orbit: 486 x 507 km, 97.4° (Epoch: 16 January)

Event Time Altitude Azimuth Distance (km) Brightness Sun altitude
Rises 04:15:54 0° 14° (NNE) 2,633 ? -9.2°
Reaches altitude 10° 04:18:01 10° 16° (NNE) 1,740 ? -8.9°
Maximum altitude 04:21:46 77° 102° (ESE) 527 ? -8.3°
Drops below altitude 10° 04:25:28 10° 189° (S) 1,717 ? -7.8°
Sets 04:27:32 0° 191° (S) 2,593 ? -7.5°
